[[{"header":{"parameterUnit":"m.s-1","parameterCategory":1,"la1":30.2991,"la2":30.254,"lo1":-89.0895,"lo2":-89.0444,"dy":0.0017,"dx":0.0017,"nx":28,"ny":28,"refTime":"2024-03-16T09:00:00:Z","depth":0,"parameterNumber":2,"parameterNumberName":"U-component_of_WINDS"},"data":[0,0,0,0,0,0,0,0,0,0,0,0,0,0,0,0,0,0,0,0,0,0,0,0,0,0,0,0,0,0,0,0,0,0,0,0,0,0,0,0,0,0,0,0,0,0,0,0,0,0,0,0,0,0,0,0,0,0,-1.4872,-1.4872,0,-1.484,-1.484,-1.4839,-1.4793,-1.4792,-1.4791,-1.4791,-1.4758,-1.4758,-1.4758,0,0,0,0,0,0,0,0,0,0,0,0,0,-1.4894,-1.4894,-1.4872,-1.4872,-1.4871,-1.484,-1.484,-1.4839,-1.4793,-1.4792,-1.4791,-1.479,-1.4758,-1.4758,-1.4758,0,0,0,0,0,0,0,0,0,0,0,0,0,-1.4875,-1.4894,-1.4872,-1.4845,-1.4842,-1.484,-1.484,-1.4839,-1.4793,-1.4792,-1.4791,-1.479,-1.4758,-1.4758,-1.4758,-1.478,0,0,-1.4757,-1.4757,0,0,0,0,0,0,0,0,-1.4876,-1.4875,-1.4849,-1.4847,-1.4843,-1.4819,-1.4835,-1.4819,-1.4794,-1.4812,-1.4791,-1.4789,-1.4779,-1.4777,-1.4774,-1.4779,-1.4778,-1.4757,-1.4757,-1.4757,-1.4757,0,0,0,0,0,0,0,-1.4878,-1.4876,-1.4859,-1.4849,-1.4845,-1.4834,-1.483,-1.4832,-1.4803,-1.481,-1.4807,-1.4803,-1.4778,-1.4774,-1.4773,-1.4777,-1.4757,-1.4757,-1.4757,-1.4757,-1.4799,-1.48,0,0,0,0,0,0,-1.4883,-1.4877,-1.486,-1.4859,-1.4857,-1.4834,-1.483,-1.4828,-1.4803,-1.4797,-1.4805,-1.4801,-1.4775,-1.4773,-1.4771,-1.4797,-1.4757,-1.4757,-1.4757,-1.4798,-1.4799,-1.4801,0,0,0,0,0,0,-1.4884,-1.4882,-1.4862,-1.4867,-1.4863,-1.4835,-1.4834,-1.4828,-1.4825,-1.4798,-1.4793,-1.4807,-1.4774,-1.4772,-1.4779,-1.4795,-1.4757,-1.4756,-1.4796,-1.4798,-1.48,-1.4847,0,0,0,0,0,0,-1.4885,-1.4883,-1.4891,-1.4867,-1.4863,-1.487,-1.4835,-1.4829,-1.4825,-1.482,-1.4799,-1.4794,-1.4773,-1.4779,-1.4778,-1.4794,-1.4756,-1.4795,-1.4797,-1.4799,-1.4844,-1.4851,-1.4856,0,0,0,0,0,-1.4886,-1.4906,-1.4892,-1.489,-1.4873,-1.4871,-1.4868,-1.4844,-1.4826,-1.4834,-1.4817,-1.4795,-1.4793,-1.478,-1.4779,-1.4795,-1.4794,-1.4797,-1.4799,-1.4842,-1.4849,-1.4856,0,0,0,0,0,0,-1.4932,-1.4902,-1.4886,-1.4899,-1.4888,-1.4863,-1.4873,-1.4853,-1.4846,-1.4842,-1.4812,-1.4807,-1.4818,-1.4807,-1.4793,-1.4815,-1.479,-1.4793,-1.4823,-1.483,-1.4835,-1.4838,-1.4756,0,0,0,0,0,-1.4944,-1.4945,-1.4918,-1.4932,-1.4927,-1.4901,-1.4899,-1.4881,-1.4868,-1.4863,-1.4846,-1.4834,-1.4831,-1.483,-1.4825,-1.4842,-1.4837,-1.4852,-1.4858,-1.4863,-1.4866,-1.4874,-1.4881,-1.481,-1.481,-1.481,0,0,-1.4969,-1.4952,-1.4954,-1.4941,-1.493,-1.4931,-1.4897,-1.49,-1.49,-1.4863,-1.4869,-1.4856,-1.4841,-1.4853,-1.4857,-1.4844,-1.4884,-1.4867,-1.4871,-1.4871,-1.4878,-1.4885,-1.4891,-1.4812,-1.4811,-1.4811,0,0,-1.5014,-1.5002,-1.5012,-1.5002,-1.4985,-1.4967,-1.497,-1.4948,-1.4938,-1.4943,-1.4915,-1.4915,-1.491,-1.49,-1.4895,-1.4936,-1.4915,-1.4935,-1.4967,-1.4975,-1.4981,-1.4985,-1.5001,-1.5006,-1.4938,-1.4938,-1.4938,0,-1.5047,-1.5047,-1.502,-1.5024,-1.502,-1.4985,-1.4996,-1.4987,-1.497,-1.4967,-1.4952,-1.4945,-1.4933,-1.4942,-1.4952,-1.4949,-1.4951,-1.4938,-1.4982,-1.4987,-1.4991,-1.5005,-1.501,-1.4941,-1.4941,-1.494,-1.494,0,-1.5088,-1.5089,-1.51,-1.5084,-1.508,-1.5088,-1.5062,-1.5061,-1.5043,-1.5027,-1.5032,-1.5016,-1.5007,-1.5008,-1.4991,-1.5015,-1.5007,-1.4988,-1.4961,-1.5001,-1.5013,-1.5018,-1.4945,-1.4944,-1.4943,-1.4942,0,0,-1.5163,-1.5132,-1.5137,-1.5129,-1.5108,-1.5108,-1.5114,-1.5106,-1.5106,-1.5095,-1.5099,-1.5096,-1.5077,-1.5071,-1.5052,-1.5059,-1.5093,-1.5039,-1.5038,-1.505,-1.512,-1.5135,-1.5142,-1.5079,-1.508,-1.5081,-1.5121,0,-1.5205,-1.5213,-1.5189,-1.5203,-1.5204,-1.5171,-1.5176,-1.5164,-1.5149,-1.5147,-1.513,-1.5128,-1.5104,-1.51,-1.5105,-1.5088,-1.5107,-1.5085,-1.5083,-1.5083,-1.5089,-1.5148,-1.5165,-1.5204,-1.5126,-1.5127,-1.5127,0,-1.5255,-1.5247,-1.5262,-1.524,-1.5239,-1.5244,-1.5235,-1.5233,-1.5218,-1.5207,-1.52,-1.5178,-1.5182,-1.5156,-1.5161,-1.5147,-1.5144,-1.5136,-1.5136,-1.5136,-1.5108,-1.515,-1.5216,-1.5222,-1.5135,-1.5134,-1.5134,0,-1.5309,-1.5302,-1.531,-1.5304,-1.5279,-1.5283,-1.5273,-1.5257,-1.5253,-1.5245,-1.5242,-1.5234,-1.523,-1.5224,-1.52,-1.5184,-1.5209,-1.5181,-1.5199,-1.52,-1.5207,-1.5207,-1.5274,-1.5204,-1.5204,-1.5204,-1.5204,0,-1.5359,-1.537,-1.5334,-1.5339,-1.5349,-1.532,-1.5332,-1.5318,-1.5304,-1.5306,-1.5276,-1.5278,-1.5246,-1.5245,-1.5226,-1.5234,-1.5232,-1.5223,-1.5218,-1.5226,-1.5227,-1.5225,-1.5222,-1.5205,-1.5205,-1.5205,-1.5205,0,-1.5422,-1.5398,-1.5404,-1.538,-1.5374,-1.5383,-1.5361,-1.5365,-1.5347,-1.535,-1.5349,-1.5322,-1.5319,-1.5294,-1.5285,-1.5273,-1.5287,-1.5277,-1.5293,-1.5289,-1.5309,-1.5308,-1.5377,-1.5385,-1.531,-1.5311,-1.5312,0,-1.5456,-1.5463,-1.5439,-1.5438,-1.5429,-1.5427,-1.5423,-1.5395,-1.5392,-1.5376,-1.5382,-1.5376,-1.537,-1.5366,-1.5346,-1.5339,-1.5329,-1.5353,-1.5327,-1.5335,-1.533,-1.533,-1.5331,-1.5359,-1.536,-1.5361,-1.5361,0,-1.5519,-1.5506,-1.5502,-1.5493,-1.549,-1.5482,-1.5472,-1.5473,-1.5441,-1.544,-1.5436,-1.5431,-1.5422,-1.5417,-1.5407,-1.5396,-1.5374,-1.537,-1.5374,-1.5382,-1.5392,-1.5388,-1.5308,-1.5368,-1.5368,-1.5367,-1.5367,-1.5367,-1.5568,-1.5573,-1.5557,-1.5553,-1.5542,-1.5534,-1.5536,-1.5519,-1.5515,-1.5506,-1.5489,-1.5488,-1.5472,-1.5456,-1.5447,-1.5445,-1.5432,-1.5438,-1.544,-1.5442,-1.5446,-1.5391,-1.5443,-1.5443,-1.5443,-1.5443,-1.5442,0,-1.563,-1.5618,-1.5614,-1.5602,-1.5598,-1.5577,-1.5565,-1.5564,-1.5563,-1.5551,-1.5545,-1.5541,-1.5536,-1.5515,-1.5507,-1.551,-1.55,-1.5509,-1.5509,-1.5507,-1.5458,-1.5456,-1.5518,-1.5518,-1.5518,-1.5518,-1.5518,-1.5518,-1.5662,-1.5669,-1.5655,-1.5657,-1.5644,-1.5643,-1.5638,-1.563,-1.562,-1.5616,-1.5612,-1.5598,-1.5582,-1.5573,-1.5567,-1.5561,-1.556,-1.5573,-1.5564,-1.5518,-1.5511,-1.5504,-1.5502,-1.5573,-1.5573,-1.5613,-1.5613,-1.5614]},{"header":{"parameterUnit":"m.s-1","parameterCategory":1,"la1":30.2991,"la2":30.254,"lo1":-89.0895,"lo2":-89.0444,"dy":0.0017,"dx":0.0017,"nx":28,"ny":28,"refTime":"2024-03-16T09:00:00:Z","depth":0,"parameterNumber":3,"parameterNumberName":"V-component_of_WINDS"},"data":[0,0,0,0,0,0,0,0,0,0,0,0,0,0,0,0,0,0,0,0,0,0,0,0,0,0,0,0,0,0,0,0,0,0,0,0,0,0,0,0,0,0,0,0,0,0,0,0,0,0,0,0,0,0,0,0,0,0,-3.2547,-3.2548,0,-3.2588,-3.2588,-3.2589,-3.2582,-3.2581,-3.2581,-3.258,-3.2616,-3.2618,-3.2619,0,0,0,0,0,0,0,0,0,0,0,0,0,-3.2459,-3.2461,-3.2547,-3.2548,-3.2548,-3.2588,-3.2588,-3.2589,-3.2582,-3.2581,-3.2581,-3.258,-3.2616,-3.2618,-3.2619,0,0,0,0,0,0,0,0,0,0,0,0,0,-3.2498,-3.2462,-3.2547,-3.255,-3.2551,-3.2588,-3.2588,-3.2589,-3.2582,-3.2581,-3.258,-3.2579,-3.2615,-3.2617,-3.262,-3.2655,0,0,-3.2627,-3.2628,0,0,0,0,0,0,0,0,-3.2496,-3.2502,-3.2549,-3.255,-3.2551,-3.2579,-3.257,-3.2611,-3.2583,-3.257,-3.258,-3.2579,-3.2604,-3.2607,-3.2617,-3.2657,-3.2658,-3.2627,-3.2629,-3.263,-3.263,0,0,0,0,0,0,0,-3.2493,-3.25,-3.2563,-3.255,-3.2551,-3.2547,-3.2552,-3.2578,-3.2592,-3.2571,-3.2571,-3.2576,-3.2604,-3.2615,-3.2618,-3.2659,-3.2627,-3.2629,-3.2631,-3.2632,-3.2729,-3.2731,0,0,0,0,0,0,-3.2491,-3.2498,-3.2562,-3.2564,-3.2521,-3.255,-3.2555,-3.2571,-3.2592,-3.2594,-3.2577,-3.2576,-3.2611,-3.2615,-3.2619,-3.2663,-3.263,-3.2632,-3.2633,-3.2728,-3.273,-3.2731,0,0,0,0,0,0,-3.2489,-3.2497,-3.256,-3.2531,-3.2539,-3.2553,-3.257,-3.2572,-3.2583,-3.2596,-3.2598,-3.2585,-3.2611,-3.2616,-3.2647,-3.2664,-3.2633,-3.2635,-3.2727,-3.2729,-3.273,-3.275,0,0,0,0,0,0,-3.2486,-3.2496,-3.2511,-3.2531,-3.2541,-3.2589,-3.2572,-3.2574,-3.2587,-3.2586,-3.2605,-3.2607,-3.261,-3.2643,-3.2649,-3.2667,-3.2637,-3.2725,-3.2728,-3.273,-3.2747,-3.2752,-3.2755,0,0,0,0,0,-3.2483,-3.2513,-3.2511,-3.2519,-3.2559,-3.259,-3.2595,-3.26,-3.2589,-3.2603,-3.2612,-3.2606,-3.2661,-3.2646,-3.2653,-3.2671,-3.2724,-3.2727,-3.273,-3.2746,-3.2751,-3.2755,0,0,0,0,0,0,-3.2492,-3.2516,-3.2514,-3.2552,-3.2569,-3.2589,-3.2607,-3.2605,-3.2624,-3.2622,-3.2625,-3.2629,-3.2661,-3.2669,-3.2652,-3.2707,-3.2691,-3.2695,-3.2701,-3.2706,-3.271,-3.2708,-3.2639,0,0,0,0,0,-3.2498,-3.2523,-3.2541,-3.2573,-3.2582,-3.2593,-3.2606,-3.2609,-3.2626,-3.2632,-3.2643,-3.2659,-3.2679,-3.2693,-3.2712,-3.2748,-3.2752,-3.2764,-3.2768,-3.2771,-3.2775,-3.2795,-3.2801,-3.274,-3.274,-3.274,0,0,-3.2511,-3.2528,-3.2542,-3.2575,-3.2589,-3.2612,-3.2599,-3.2624,-3.2642,-3.2635,-3.2666,-3.2675,-3.2692,-3.2726,-3.2741,-3.2733,-3.2793,-3.2775,-3.2777,-3.2779,-3.2798,-3.2804,-3.2809,-3.2741,-3.2741,-3.2741,0,0,-3.2548,-3.2563,-3.2591,-3.2606,-3.2627,-3.2634,-3.2641,-3.2661,-3.2667,-3.2699,-3.2695,-3.2714,-3.275,-3.2763,-3.2774,-3.2816,-3.2811,-3.2822,-3.2843,-3.2863,-3.2867,-3.2872,-3.2888,-3.2893,-3.2825,-3.2825,-3.2825,0,-3.2561,-3.2599,-3.2605,-3.2632,-3.2647,-3.2644,-3.2672,-3.2685,-3.2711,-3.272,-3.2711,-3.2757,-3.2768,-3.2805,-3.2816,-3.2824,-3.2832,-3.282,-3.2866,-3.2871,-3.2875,-3.289,-3.2896,-3.2826,-3.2826,-3.2826,-3.2826,0,-3.2615,-3.2641,-3.2661,-3.2689,-3.2705,-3.2732,-3.2741,-3.2757,-3.2758,-3.2765,-3.2797,-3.281,-3.2833,-3.2842,-3.2842,-3.2879,-3.2874,-3.2866,-3.285,-3.2882,-3.2896,-3.2902,-3.2828,-3.2828,-3.2827,-3.2827,0,0,-3.2658,-3.269,-3.2698,-3.2711,-3.2734,-3.2754,-3.278,-3.2805,-3.2818,-3.2836,-3.2858,-3.2888,-3.2881,-3.2894,-3.2895,-3.2912,-3.2946,-3.2902,-3.2902,-3.2911,-3.2989,-3.2996,-3.3002,-3.2943,-3.2944,-3.2945,-3.2988,0,-3.2698,-3.2748,-3.2755,-3.2798,-3.2822,-3.282,-3.2843,-3.2859,-3.2867,-3.2887,-3.2895,-3.2917,-3.2905,-3.2913,-3.293,-3.2938,-3.2962,-3.2935,-3.2963,-3.2964,-3.296,-3.301,-3.3017,-3.3057,-3.2993,-3.2994,-3.2995,0,-3.2752,-3.2774,-3.2821,-3.2842,-3.2852,-3.2873,-3.2897,-3.2916,-3.2934,-3.2938,-3.2953,-3.2953,-3.2979,-3.2961,-3.2997,-3.2979,-3.299,-3.2996,-3.2998,-3.3001,-3.2982,-3.3016,-3.307,-3.3076,-3.3003,-3.3003,-3.3002,0,-3.2781,-3.2821,-3.2855,-3.2866,-3.2891,-3.2906,-3.2917,-3.2934,-3.2949,-3.2968,-3.2978,-3.2999,-3.3011,-3.3027,-3.3031,-3.3018,-3.3067,-3.305,-3.3071,-3.3071,-3.3083,-3.3082,-3.314,-3.3088,-3.3088,-3.3088,-3.3088,0,-3.2825,-3.2854,-3.2869,-3.2889,-3.2921,-3.2927,-3.2958,-3.2968,-3.2983,-3.3005,-3.3003,-3.3023,-3.3027,-3.3048,-3.3051,-3.3081,-3.3085,-3.3089,-3.309,-3.309,-3.309,-3.3099,-3.3097,-3.3089,-3.3089,-3.3089,-3.3088,0,-3.2863,-3.2874,-3.2911,-3.2933,-3.2939,-3.2961,-3.2979,-3.2998,-3.3006,-3.3033,-3.304,-3.3051,-3.3075,-3.3081,-3.3109,-3.3111,-3.3147,-3.3144,-3.3141,-3.3142,-3.3163,-3.3162,-3.323,-3.324,-3.318,-3.318,-3.3181,0,-3.2892,-3.2914,-3.2939,-3.2955,-3.2967,-3.2992,-3.3007,-3.3013,-3.3029,-3.3052,-3.3068,-3.3092,-3.3112,-3.315,-3.316,-3.3181,-3.318,-3.3202,-3.3183,-3.3183,-3.3181,-3.3181,-3.3183,-3.3206,-3.3207,-3.3207,-3.3208,0,-3.2942,-3.2946,-3.297,-3.2996,-3.3015,-3.3035,-3.3054,-3.3066,-3.3075,-3.3092,-3.3118,-3.3134,-3.3163,-3.3187,-3.3209,-3.3218,-3.3214,-3.3214,-3.322,-3.3221,-3.3219,-3.3222,-3.3153,-3.3212,-3.3212,-3.3212,-3.3211,-3.3211,-3.2977,-3.2997,-3.3019,-3.3045,-3.306,-3.3078,-3.3098,-3.3109,-3.3131,-3.3158,-3.3159,-3.3187,-3.3204,-3.3233,-3.3244,-3.3265,-3.3258,-3.3266,-3.3269,-3.3271,-3.3274,-3.3215,-3.3268,-3.3268,-3.3268,-3.3268,-3.3268,0,-3.3028,-3.3042,-3.3066,-3.3094,-3.3115,-3.3111,-3.3132,-3.3149,-3.3174,-3.3191,-3.3212,-3.3241,-3.3264,-3.3276,-3.3299,-3.3313,-3.3312,-3.3319,-3.3319,-3.3321,-3.3278,-3.3271,-3.332,-3.332,-3.332,-3.332,-3.332,-3.332,-3.3057,-3.3092,-3.3099,-3.3141,-3.3154,-3.3184,-3.3196,-3.3212,-3.3226,-3.326,-3.328,-3.3288,-3.3303,-3.3327,-3.3348,-3.335,-3.3359,-3.3367,-3.3369,-3.3329,-3.3324,-3.3319,-3.3312,-3.3369,-3.3369,-3.341,-3.3411,-3.3411]}]]